Malaga, Spain

6:38 AM CET on December 19, 2018 (GMT +0100)
Malaga

Weather History for LEMG - October, 2018

Change the Weather History Date:

Friday, October 12, 2018

  Actual Average Record
Temperature  
Mean Temperature 71 °F -  
Max Temperature 80 °F 69 °F 87 °F (1997)
Min Temperature 62 °F 54 °F 51 °F (1998)
Cooling Degree Days 6    
Growing Degree Days 21 (Base 50)    
Moisture  
Dew Point 64 °F    
Average Humidity 78    
Maximum Humidity 94    
Minimum Humidity 54    
Precipitation  
Precipitation 0.00 in 0.10 in - ()
Sea Level Pressure  
Sea Level Pressure 30.14 in    
Wind  
Wind Speed 6 mph ()    
Max Wind Speed 9 mph    
Max Gust Speed 15 mph    
Visibility 8.0 miles    
Events      
Averages and records for this station are not official NWS values.
T = Trace of Precipitation, MM = Missing Value Source: Averaged Metar Reports

Daily Weather History Graph

Daily Weather History Graph

Search for Another Location

Airport or City:

Astronomy

Oct. 12, 2018 Rise Set
Actual Time 8:22 AM CEST 7:45 PM CEST
Civil Twilight 7:56 AM CEST 8:11 PM CEST
Nautical Twilight 7:26 AM CEST 8:41 PM CEST
Astronomical Twilight 6:56 AM CEST 9:11 PM CEST
Moon 11:38 AM CEST (10/12) 10:16 PM CEST (10/12)
Length of Visible Light 12h 15m
Length of Day
11h 23m
Waxing Crescent, 12% of the Moon is Illuminated
Oct 12
Waxing Crescent
Oct 16
First Quarter
Oct 24
Full
Oct 31
Last Quarter
Nov 7
New

Hourly Weather History & Observations

Time (CEST) Temp. Dew Point Humidity Pressure Visibility Wind Dir Wind Speed Gust Speed Precip Events Conditions
12:00 AM 70 °F 65 °F 79% 30.11 in - WNW 9.2 mph - -  
12:00 AM 68.0 °F 64.4 °F 88% 30.09 in - WNW 8.1 mph - N/A   Clear
12:30 AM 68.0 °F 64.4 °F 88% 30.09 in - WNW 9.2 mph - N/A   Clear
1:00 AM 67 °F 64 °F 89% 30.11 in - WNW 9.2 mph - -  
1:00 AM 66.2 °F 64.4 °F 94% 30.09 in - WNW 8.1 mph - N/A   Clear
1:30 AM 68.0 °F 64.4 °F 88% 30.09 in - West 6.9 mph - N/A   Clear
2:00 AM 67 °F 64 °F 88% 30.10 in 9 mi West 8.1 mph - -   Clear
2:00 AM 68.0 °F 64.4 °F 88% 30.09 in - West 8.1 mph - N/A   Clear
2:30 AM 66.2 °F 64.4 °F 94% 30.09 in - WNW 6.9 mph - N/A   Clear
3:00 AM 67 °F 64 °F 87% 30.11 in - WNW 5.8 mph - -  
3:00 AM 66.2 °F 62.6 °F 88% 30.09 in - WNW 4.6 mph - N/A   Clear
3:30 AM 66.2 °F 62.6 °F 88% 30.09 in - WNW 5.8 mph - N/A   Clear
4:00 AM 66.2 °F 62.6 °F 88% 30.09 in - NW 6.9 mph - N/A   Clear
4:30 AM 66.2 °F 62.6 °F 88% 30.09 in - WNW 6.9 mph - N/A   Clear
5:00 AM 66 °F 63 °F 87% 30.11 in 9 mi WNW 3.5 mph - -   Clear
5:00 AM 66.2 °F 62.6 °F 88% 30.09 in - Variable 2.3 mph - N/A   Clear
5:30 AM 64.4 °F 62.6 °F 94% 30.09 in - WNW 6.9 mph - N/A   Clear
6:00 AM 65 °F 62 °F 89% 30.11 in - WNW 6.9 mph - -  
6:00 AM 64.4 °F 62.6 °F 94% 30.09 in - WNW 6.9 mph - N/A   Clear
6:30 AM 64.4 °F 62.6 °F 94% 30.09 in - WNW 5.8 mph - N/A   Clear
7:00 AM 65 °F 61 °F 84% 30.12 in - WNW 9.2 mph - -  
7:00 AM 64.4 °F 60.8 °F 88% 30.09 in - WNW 8.1 mph - N/A   Clear
7:30 AM 64.4 °F 60.8 °F 88% 30.12 in - WNW 4.6 mph - N/A   Clear
8:00 AM 65 °F 61 °F 83% 30.13 in 9 mi WNW 4.6 mph - -   Clear
8:00 AM 62.6 °F 60.8 °F 94% 30.12 in - WNW 3.5 mph - N/A   Clear
8:30 AM 62.6 °F 60.8 °F 94% 30.12 in - WNW 3.5 mph - N/A   Clear
9:00 AM 64 °F 61 °F 87% 30.16 in 19 mi West 3.5 mph - -   Clear
9:00 AM 64.4 °F 60.8 °F 88% 30.15 in - Variable 2.3 mph - N/A   Clear
9:30 AM 64.4 °F 62.6 °F 94% 30.15 in - WNW 3.5 mph - N/A   Clear
10:00 AM 67 °F 62 °F 77% 30.18 in - WNW 6.9 mph - -  
10:00 AM 66.2 °F 62.6 °F 88% 30.15 in - WNW 5.8 mph - N/A   Clear
10:30 AM 68.0 °F 60.8 °F 78% 30.18 in - WNW 4.6 mph - N/A   Clear
11:00 AM 71.6 °F 60.8 °F 69% 30.18 in - NNW 3.5 mph 15.0 mph N/A   Clear
11:30 AM 73.4 °F 60.8 °F 65% 30.18 in - South 1.2 mph - N/A   Clear
12:00 PM 75 °F 62 °F 54% 30.20 in - NE 2.3 mph - -  
12:00 PM 75.2 °F 60.8 °F 61% 30.18 in - NE 1.2 mph - N/A   Clear
12:30 PM 77.0 °F 60.8 °F 57% 30.18 in - North 1.2 mph - N/A   Clear
1:00 PM 78 °F 65 °F 56% 30.19 in - ESE 6.9 mph - -  
1:00 PM 75.2 °F 64.4 °F 69% 30.18 in - ESE 5.8 mph - N/A   Clear
1:30 PM 77.0 °F 62.6 °F 61% 30.18 in - ESE 5.8 mph - N/A   Clear
2:00 PM 78.8 °F 64.4 °F 61% 30.18 in 6.2 mi SE 6.9 mph - N/A   Partly Cloudy
2:30 PM 78.8 °F 64.4 °F 61% 30.18 in 6.2 mi SE 8.1 mph - N/A   Partly Cloudy
3:00 PM 79 °F 65 °F 54% 30.17 in 25 mi SSE 9.2 mph - -   Scattered Clouds
3:00 PM 77.0 °F 64.4 °F 65% 30.15 in 6.2 mi SSE 8.1 mph - N/A   Partly Cloudy
3:30 PM 77.0 °F 64.4 °F 65% 30.15 in 6.2 mi SE 9.2 mph - N/A   Partly Cloudy
4:00 PM 78 °F 66 °F 58% 30.15 in - SSE 9.2 mph - -  
4:00 PM 77.0 °F 66.2 °F 69% 30.15 in 6.2 mi SSE 9.2 mph - N/A   Partly Cloudy
4:30 PM 78.8 °F 62.6 °F 57% 30.15 in 6.2 mi SSE 8.1 mph - N/A   Partly Cloudy
5:00 PM 79 °F 66 °F 55% 30.15 in 25 mi SE 6.9 mph - -   Scattered Clouds
5:00 PM 78.8 °F 64.4 °F 61% 30.15 in 6.2 mi SE 6.9 mph - N/A   Partly Cloudy
5:30 PM 77.0 °F 64.4 °F 65% 30.12 in 6.2 mi SE 6.9 mph - N/A   Partly Cloudy
6:00 PM 77 °F 66 °F 60% 30.13 in - SE 6.9 mph - -  
6:00 PM 77.0 °F 66.2 °F 69% 30.12 in 6.2 mi SE 5.8 mph - N/A   Partly Cloudy
6:30 PM 75.2 °F 64.4 °F 69% 30.12 in 6.2 mi SE 6.9 mph - N/A   Partly Cloudy
7:00 PM 73.4 °F 64.4 °F 73% 30.12 in 6.2 mi SE 6.9 mph - N/A   Partly Cloudy
7:30 PM 73.4 °F 66.2 °F 78% 30.15 in 6.2 mi SE 5.8 mph - N/A   Partly Cloudy
8:00 PM 73 °F 66 °F 73% 30.16 in 19 mi SE 5.8 mph - -   Scattered Clouds
8:00 PM 71.6 °F 66.2 °F 83% 30.15 in 6.2 mi SE 5.8 mph - N/A   Partly Cloudy
8:30 PM 71.6 °F 66.2 °F 83% 30.15 in 6.2 mi SE 3.5 mph - N/A   Partly Cloudy
9:00 PM 72 °F 66 °F 75% 30.16 in - ENE 2.3 mph - -  
9:00 PM 71.6 °F 64.4 °F 78% 30.15 in 6.2 mi Variable 1.2 mph - N/A   Partly Cloudy
9:30 PM 69.8 °F 64.4 °F 83% 30.15 in 6.2 mi Variable 1.2 mph - N/A   Partly Cloudy
10:00 PM 71 °F 65 °F 77% 30.17 in - West 2.3 mph - -  
10:00 PM 69.8 °F 64.4 °F 83% 30.15 in - West 2.3 mph - N/A   Clear
10:30 PM 68.0 °F 64.4 °F 88% 30.15 in - West 3.5 mph - N/A   Clear
11:00 PM 70 °F 65 °F 79% 30.17 in 12 mi West 4.6 mph - -   Clear
11:00 PM 69.8 °F 64.4 °F 83% 30.15 in - West 3.5 mph - N/A   Clear
11:30 PM 68.0 °F 64.4 °F 88% 30.15 in - West 2.3 mph - N/A   Clear